Location: Dompnac
(44.5644°N, 4.1026°E)
Time: 10:42:06
(UTC+00:00)

SJ-11-01 - Pass Details

Date: 19 September 2020
Orbit: 684 x 701 km, 98.0° (Epoch: 30 October)

Event Time Altitude Azimuth Distance (km) Brightness Sun altitude
Rises 18:42:24 0° 165° (SSE) 3,066 7.4 -10.8°
Reaches altitude 10° 18:44:39 10° 166° (SSE) 2,150 6.6 -11.2°
Maximum altitude 18:49:22 89° 249° (WSW) 701 4.3 -12.0°
Drops below altitude 10° 18:54:06 10° 347° (NNW) 2,156 7.2 -12.8°
Sets 18:56:21 0° 347° (NNW) 3,075 8.0 -13.2°
